Erie, PA

3:22 PM EST on November 13, 2019 (GMT -0500)
Erie International

Weather History for KERI - September, 2019

Change the Weather History Date:

Sunday, September 15, 2019

  Actual Average Record
Temperature  
Mean Temperature 68 °F 64 °F  
Max Temperature 77 °F 72 °F 92 °F (1936)
Min Temperature 60 °F 56 °F 42 °F (1953)
Degree Days  
Heating Degree Days 0 3  
Month to date heating degree days 8 27  
Since 1 July heating degree days 9 45  
Cooling Degree Days 4 2  
Month to date cooling degree days 64 49  
Year to date cooling degree days 754 607  
Growing Degree Days 18 (Base 50)    
Moisture  
Dew Point 59 °F    
Average Humidity 74    
Maximum Humidity 87    
Minimum Humidity 60    
Precipitation  
Precipitation T in 0.16 in 3.59 in (2002)
Month to date precipitation 3.12 2.11  
Year to date precipitation 29.44 27.94  
Snow  
Snow 0.00 in 0.00 in - ()
Month to date snowfall 0.0 0.0  
Since 1 July snowfall 0.0 0.0  
Since 1 September snowfall 0.0 0.0  
Snow Depth 0.00 in    
Sea Level Pressure  
Sea Level Pressure 30.14 in    
Wind  
Wind Speed 6 mph ()    
Max Wind Speed 14 mph    
Max Gust Speed 16 mph    
Visibility 10.0 miles    
Events Rain    
T = Trace of Precipitation, MM = Missing Value Source: Averaged Metar Reports

Daily Weather History Graph

Daily Weather History Graph

Search for Another Location

Airport or City:

Astronomy

Sep. 15, 2019 Rise Set
Actual Time 7:00 AM EDT 7:30 PM EDT
Civil Twilight 6:32 AM EDT 7:58 PM EDT
Nautical Twilight 5:59 AM EDT 8:31 PM EDT
Astronomical Twilight 5:25 AM EDT 9:05 PM EDT
Moon 8:36 PM EDT (9/15) 8:09 AM EDT (9/15)
Length of Visible Light 13h 26m
Length of Day
12h 30m
Full, 98% of the Moon is Illuminated
Sep 15
Full
Sep 21
Last Quarter
Sep 28
New
Oct 5
First Quarter
Oct 13
Full

Hourly Weather History & Observations

Time (EDT) Temp. Dew Point Humidity Pressure Visibility Wind Dir Wind Speed Gust Speed Precip Events Conditions
12:51 AM 62.1 °F 55.9 °F 80% 30.19 in 10.0 mi South 5.8 mph - N/A   Clear
1:51 AM 61.0 °F 55.9 °F 83% 30.19 in 10.0 mi South 6.9 mph - N/A   Clear
2:51 AM 61.0 °F 55.9 °F 83% 30.18 in 10.0 mi South 6.9 mph - N/A   Clear
3:51 AM 62.1 °F 55.9 °F 80% 30.17 in 10.0 mi South 6.9 mph - N/A   Clear
4:51 AM 62.1 °F 55.0 °F 78% 30.17 in 10.0 mi South 5.8 mph - N/A   Clear
5:51 AM 61.0 °F 55.0 °F 81% 30.17 in 10.0 mi South 6.9 mph - N/A   Clear
6:51 AM 60.1 °F 55.0 °F 83% 30.18 in 10.0 mi South 6.9 mph - N/A   Clear
7:51 AM 61.0 °F 55.9 °F 83% 30.18 in 10.0 mi South 6.9 mph - N/A   Clear
8:51 AM 64.9 °F 57.9 °F 78% 30.19 in 10.0 mi SSW 6.9 mph - N/A   Clear
9:51 AM 70.0 °F 61.0 °F 73% 30.17 in 10.0 mi South 5.8 mph - N/A   Clear
10:51 AM 72.0 °F 62.1 °F 71% 30.17 in 10.0 mi SSE 6.9 mph - N/A   Scattered Clouds
11:51 AM 73.0 °F 60.1 °F 64% 30.17 in 10.0 mi SSW 11.5 mph - N/A   Mostly Cloudy
12:51 PM 75.0 °F 60.1 °F 60% 30.17 in 10.0 mi SSW 10.4 mph - N/A   Overcast
1:51 PM 75.0 °F 60.1 °F 60% 30.16 in 10.0 mi SW 12.7 mph - N/A   Overcast
2:51 PM 73.9 °F 60.1 °F 62% 30.15 in 10.0 mi SW 5.8 mph - 0.00 in   Mostly Cloudy
3:51 PM 75.0 °F 62.1 °F 64% 30.11 in 10.0 mi Calm Calm - 0.00 in   Overcast
4:51 PM 75.9 °F 63.0 °F 64% 30.10 in 10.0 mi SSW 6.9 mph - N/A   Partly Cloudy
5:51 PM 73.9 °F 62.1 °F 66% 30.09 in 10.0 mi South 6.9 mph - N/A   Overcast
6:51 PM 73.0 °F 63.0 °F 71% 30.08 in 10.0 mi South 6.9 mph - N/A   Overcast
7:51 PM 72.0 °F 62.1 °F 71% 30.08 in 10.0 mi South 4.6 mph - 0.00 in Rain Light Rain
8:51 PM 71.1 °F 61.0 °F 70% 30.09 in 10.0 mi Calm Calm - 0.00 in   Overcast
9:51 PM 68.0 °F 61.0 °F 78% 30.09 in 10.0 mi ENE 9.2 mph - N/A   Overcast
10:51 PM 66.9 °F 62.1 °F 84% 30.08 in 10.0 mi East 5.8 mph - N/A   Overcast
11:51 PM 68.0 °F 61.0 °F 78% 30.06 in 10.0 mi SSE 5.8 mph - N/A   Overcast